Location: Camp at the Woods
(43.2055°N, 93.0905°W)
Time: 00:16:23
(UTC+00:00)

Cosmos 2227 Rocket - Pass Details

Date: 30 May 2025
Orbit: 837 x 844 km, 71.0° (Epoch: 12 June)

Event Time Altitude Azimuth Distance (km) Brightness Sun altitude
Exits shadow 06:49:12 63° 199° (SSW) 933 2.1 -24.4°
Maximum altitude 06:50:10 88° 113° (ESE) 845 2.1 -24.3°
Drops below altitude 10° 06:55:51 10° 25° (NNE) 2,464 5.6 -24.1°
Sets 06:58:18 0° 26° (NNE) 3,404 6.7 -24.0°
